Wind_Speed
3 3 2 5 7 9 10 7 7 4 5 7 6 3 1 1 4 6 7 8 9 9 9 8 6 16 12 8 5 4 3 2 1 3 2 4 6 6 7 8 7 8 8 9 10 13 16 16 16
2 1 4 10 16 16 10 5 2 5 8 8 4 3 1 3 7 7 8 8 8 7 9 9 9 8 11 9 6 4 4 3 1 0 3 3 5 6 6 9 8 9 9 10 16 17 16 16 19
3 1 5 12 9 18 17 9 4 4 4 6 1 2 4 4 7 8 9 7 8 9 8 10 11 9 11 10 7 4 3 3 3 2 3 3 5 6 8 9 9 10 12 16 18 17 17 19 22
3 2 5 2 12 6 19 6 4 4 5 5 0 5 6 3 7 7 6 9 10 11 10 9 6 5 9 10 7 5 2 1 4 5 3 5 4 7 9 10 10 12 15 17 16 17 17 19 17
4 6 7 10 15 8 6 5 5 3 5 4 3 6 6 2 7 6 10 9 10 10 10 10 8 6 8 8 6 4 3 2 2 4 4 4 4 6 9 9 10 12 15 15 13 15 15 14 12
8 11 11 10 9 3 14 9 3 1 3 5 3 6 8 4 4 6 10 10 10 12 11 12 9 9 8 6 4 4 3 4 5 6 4 1 5 4 6 8 9 11 13 13 13 15 12 10 8
11 14 16 9 7 3 6 8 1 4 6 3 4 6 7 2 4 7 10 9 9 12 13 12 10 7 7 5 5 4 6 6 10 7 2 4 2 3 4 7 8 9 11 11 12 13 12 14 11
8 9 9 9 8 7 4 3 4 4 1 2 4 5 6 3 5 10 11 8 10 12 12 11 14 12 8 8 7 5 1 2 4 3 3 4 6 2 3 7 8 9 9 6 8 14 16 13 8
3 5 7 10 8 4 2 7 3 3 3 5 7 7 6 4 7 10 11 9 8 11 10 13 13 13 11 9 8 7 3 3 3 2 9 7 5 1 5 6 7 9 12 15 4 14 16 17 7
4 7 7 10 6 6 7 9 8 2 5 7 7 8 9 7 8 9 9 9 11 12 12 13 13 13 11 11 10 7 7 5 3 11 12 8 5 3 5 6 8 10 7 11 14 12 17 11 8
5 3 8 10 9 6 4 11 4 5 8 8 10 9 11 10 9 10 9 9 10 12 12 13 13 14 12 10 9 8 8 10 4 11 11 7 4 3 5 3 5 13 7 10 12 13 12 11 8
4 4 5 8 9 9 5 8 5 6 8 9 10 10 11 11 10 9 6 9 10 10 12 12 10 12 12 11 9 6 8 9 10 11 9 7 4 2 3 3 8 10 11 14 11 9 9 11 8
4 6 6 6 7 5 8 6 5 7 9 11 11 10 10 11 11 9 8 9 9 11 11 12 12 9 11 10 10 11 7 12 15 12 9 5 4 3 2 7 7 12 13 13 12 11 9 5 4
5 5 6 6 8 7 3 10 3 2 8 10 10 11 10 10 10 9 9 9 8 11 12 13 11 11 10 6 5 13 16 19 16 12 8 6 5 5 4 1 7 7 10 12 12 14 17 9 7
6 5 5 4 6 6 3 5 7 3 6 9 8 10 9 9 8 5 6 7 7 9 13 14 13 10 9 7 10 15 16 16 15 12 8 6 6 6 5 3 5 6 8 10 9 13 17 13 8
7 6 9 5 3 1 3 1 0 8 9 9 7 8 8 6 4 4 5 9 9 7 10 15 14 12 10 11 15 15 14 14 13 10 7 8 6 6 4 3 5 7 10 9 10 12 14 11 7
10 16 5 4 3 5 2 1 3 7 6 9 8 6 7 6 6 7 6 9 10 9 10 14 14 13 11 11 13 13 11 8 12 12 10 7 5 5 3 2 4 7 9 8 8 9 11 10 6
10 11 5 5 4 4 6 5 8 12 6 10 10 9 8 7 6 9 9 7 9 12 11 12 12 12 12 10 12 11 16 10 14 12 9 7 5 4 3 1 3 6 7 8 6 6 9 9 5
13 9 10 9 5 4 5 7 8 10 7 9 11 7 6 9 11 8 8 8 9 13 15 12 14 13 12 12 13 13 15 11 12 11 10 8 5 3 3 3 5 7 9 9 6 4 6 4 6
7 11 11 10 9 6 8 7 11 11 13 8 6 3 8 11 10 8 7 7 7 11 14 15 13 12 13 14 12 11 14 12 12 11 9 8 6 5 4 7 5 7 8 7 7 4 6 3 2
10 13 13 13 14 9 6 4 6 9 13 12 9 8 3 10 5 8 7 8 5 7 10 13 14 14 14 14 15 16 15 11 11 10 12 9 8 7 4 7 5 5 6 6 7 2 2 3 2
9 12 11 14 20 13 6 3 5 11 12 13 10 11 10 8 5 6 7 8 7 9 7 8 11 12 13 17 19 18 18 13 13 11 11 10 9 8 8 6 5 5 3 5 9 6 5 6 7
15 18 12 8 10 9 4 5 8 12 13 10 13 10 9 8 5 9 7 6 7 8 9 7 7 10 9 8 8 10 14 15 16 11 12 10 10 10 9 6 7 5 4 3 5 4 5 4 8
18 11 11 9 7 6 5 8 7 4 10 14 12 13 11 9 7 7 11 8 7 7 10 10 10 9 8 8 9 10 13 15 14 14 12 13 14 11 8 7 7 6 3 5 6 4 2 5 7
18 18 15 8 11 12 8 8 6 5 6 5 7 11 12 14 11 8 9 13 9 8 8 9 11 11 9 7 9 12 14 15 15 16 14 13 11 12 10 9 9 7 6 6 6 7 5 4 4
14 17 12 10 11 7 8 5 10 7 9 4 2 1 5 8 9 9 9 9 9 9 7 7 9 11 11 10 10 14 14 14 13 15 15 14 12 12 10 9 10 8 6 8 8 12 10 5 4
14 18 13 15 11 7 5 5 6 9 9 7 4 1 3 4 4 6 8 8 7 7 8 9 8 10 11 11 12 15 16 17 17 17 16 14 14 15 14 13 13 9 9 10 9 11 12 8 6
15 16 17 16 13 13 7 2 4 6 13 5 7 6 7 3 3 4 3 5 9 9 9 10 11 10 12 11 13 14 16 19 19 19 19 17 17 16 17 16 14 13 12 11 12 11 11 11 8
4 9 12 16 18 15 13 6 4 5 1 7 9 7 9 7 2 3 6 5 4 6 10 13 15 14 14 15 15 17 18 19 20 21 22 20 19 19 18 17 16 14 14 14 14 13 12 12 13
10 9 13 20 21 18 21 15 11 11 6 2 7 10 9 3 3 5 5 3 3 7 11 12 16 19 22 22 20 21 21 22 22 24 24 22 22 20 20 19 18 16 18 17 16 15 14 14 14
Wind_Direction
151 149 271 286 272 266 276 257 262 283 309 345 12 69 51 67 188 156 184 192 211 227 235 250 247 151 151 153 157 161 148 174 132 72 351 16 28 35 25 24 23 24 17 5 1 3 0 352 348
152 272 320 322 292 278 244 264 120 309 339 5 3 89 232 206 201 188 160 191 201 224 235 244 238 183 163 152 162 179 203 210 240 80 287 4 23 31 20 30 25 23 10 5 9 1 357 356 352
121 20 301 320 344 313 193 204 262 303 334 345 37 165 190 195 208 206 174 180 191 201 216 222 223 222 194 155 165 172 211 233 228 239 278 347 11 31 25 27 27 20 14 15 5 357 354 347 349
172 266 298 1 347 37 173 114 254 286 314 336 123 186 143 187 205 195 187 215 186 185 181 180 195 210 169 165 170 173 82 288 237 252 295 332 47 37 26 28 29 25 21 9 1 5 3 348 356
274 308 311 358 12 173 148 64 300 319 338 318 225 181 111 162 219 189 161 164 180 186 193 192 178 187 176 177 186 210 244 304 304 271 274 314 23 34 27 30 30 26 23 14 18 14 10 4 352
284 291 310 327 10 288 219 278 234 341 316 317 230 171 123 153 197 183 174 179 189 189 194 188 175 157 166 180 215 246 250 285 294 285 288 79 5 31 32 42 26 23 21 16 13 18 2 21 36
278 285 292 315 332 329 307 203 146 293 353 241 195 173 133 179 179 173 164 180 189 202 199 201 173 169 181 197 222 240 266 303 308 280 148 290 335 61 47 54 24 18 12 7 17 7 25 30 24
272 284 297 288 345 356 225 200 201 239 319 199 177 164 134 149 184 167 159 175 189 188 200 205 202 202 193 210 212 236 245 271 262 227 195 110 105 124 65 52 23 5 354 351 358 2 33 30 14
260 289 320 315 292 232 196 186 271 234 220 168 178 157 133 130 180 169 162 172 160 186 202 196 208 212 204 212 219 222 220 271 325 241 176 133 124 106 47 41 18 341 332 334 342 5 15 19 21
244 320 307 291 259 251 244 184 204 185 172 158 183 161 143 157 184 171 173 186 186 191 192 208 215 212 213 213 218 225 244 260 199 121 133 143 133 82 38 31 6 357 62 24 13 23 8 6 21
288 321 290 301 303 283 190 199 188 170 160 165 181 169 151 166 195 187 193 201 196 204 196 204 208 209 212 212 216 229 252 259 168 132 138 128 102 57 52 8 341 329 335 354 4 2 12 24 22
43 303 296 312 321 298 198 175 151 152 144 178 184 172 165 171 190 186 198 212 202 208 194 185 198 205 205 212 212 228 255 224 166 138 128 115 102 68 70 354 9 32 357 1 340 324 0 27 17
343 283 285 322 330 338 196 189 168 145 162 176 178 180 173 173 183 176 183 218 210 206 194 177 186 196 211 217 215 206 191 166 154 144 132 131 136 109 89 18 342 3 15 36 33 14 328 345 3
258 281 279 314 322 336 227 200 203 174 178 174 171 175 176 171 168 181 192 213 214 212 206 190 188 179 184 205 184 165 155 145 147 138 146 164 145 120 80 2 344 344 355 358 9 10 355 333 18
231 214 266 355 348 351 298 255 248 234 239 205 172 167 181 174 174 184 174 196 210 202 204 195 183 181 172 168 149 146 139 145 138 141 151 167 165 130 96 21 349 2 348 5 0 9 6 25 19
219 205 182 258 278 21 335 332 84 237 219 226 178 161 183 194 214 240 220 197 203 194 202 195 185 189 178 165 141 151 153 152 141 142 159 161 169 130 116 67 331 353 357 10 4 6 15 37 38
196 169 201 221 230 146 184 225 234 207 218 205 221 216 212 216 245 260 252 215 204 205 201 200 194 192 191 185 164 162 158 154 163 164 174 166 175 142 149 76 316 339 339 340 356 357 356 20 67
205 222 153 175 225 169 158 145 126 157 202 213 209 215 216 219 228 249 242 217 201 213 206 206 208 204 198 201 190 189 170 159 171 175 176 172 174 167 175 129 306 320 320 320 324 348 341 29 57
214 190 175 180 202 185 164 156 152 157 168 221 215 202 216 208 215 217 245 235 215 206 211 211 207 208 214 213 208 199 213 184 167 175 174 183 182 183 201 227 263 288 291 294 297 343 320 352 52
196 206 185 170 162 174 187 175 163 149 165 175 172 192 215 194 211 211 240 248 226 211 205 217 224 223 215 218 223 202 173 182 176 184 189 184 174 159 192 241 250 272 269 288 282 288 302 228 112
178 180 192 182 179 160 137 185 218 182 164 174 183 196 201 187 182 204 234 248 210 205 208 217 216 228 229 217 220 219 220 212 195 201 195 185 183 152 212 218 192 227 270 270 251 246 225 169 130
189 169 176 192 188 164 159 208 256 189 169 167 173 176 164 169 192 184 225 240 223 182 173 190 197 206 223 231 236 235 223 218 206 217 197 192 194 200 217 222 248 241 301 286 235 239 211 162 170
162 178 166 178 158 168 194 227 222 182 195 182 183 176 162 161 167 199 202 224 220 203 189 183 194 190 203 217 206 217 211 221 210 222 209 196 201 217 217 230 256 271 286 275 227 169 184 173 160
215 197 187 199 180 190 197 202 195 200 222 229 211 206 191 186 186 203 186 198 211 201 207 194 182 174 201 214 208 208 209 206 213 218 212 219 206 204 228 237 255 252 267 236 201 196 209 139 172
235 235 241 216 199 201 200 210 248 194 97 110 191 214 204 195 199 214 200 201 216 212 215 207 204 185 197 211 236 226 214 221 224 229 205 209 214 206 212 224 241 244 239 243 234 223 220 173 151
230 233 235 215 209 200 201 216 245 194 127 92 98 178 200 202 212 214 208 205 229 222 214 209 211 214 205 209 221 238 223 208 204 202 202 210 213 204 208 221 233 230 239 240 231 228 222 208 179
229 220 215 218 206 219 242 326 259 231 147 136 89 106 160 191 233 234 215 208 209 235 251 230 223 224 216 208 212 227 235 219 213 218 220 219 219 219 215 220 223 222 229 232 226 221 232 223 216
230 199 213 224 219 234 236 112 120 155 188 173 114 78 86 31 266 265 250 206 209 218 219 232 236 253 234 229 230 227 235 236 233 231 231 227 225 227 223 222 220 217 226 228 224 218 218 231 234
271 220 222 227 229 238 244 217 234 232 304 185 148 121 12 357 52 236 251 255 231 228 228 230 235 249 238 233 242 242 238 244 242 240 241 232 235 241 240 230 226 230 219 229 227 214 211 226 232
229 236 233 231 229 244 257 247 257 260 299 326 230 273 298 139 9 186 158 183 259 277 267 245 241 246 244 239 241 248 249 244 247 248 245 243 241 243 242 236 236 233 221 222 232 226 218 225 232
Height
5884 5883 5884 5885 5888 5886 5885 5885 5886 5884 5883 5882 5881 5882 5882 5883 5884 5886 5885 5885 5887 5888 5889 5890 5890 5888 5893 5896 5899 5901 5901 5900 5901 5902 5901 5901 5901 5901 5902 5902 5902 5900 5899 5899 5897 5897 5896 5894 5893
5885 5885 5886 5884 5884 5883 5885 5885 5886 5885 5884 5882 5880 5880 5881 5883 5883 5883 5883 5885 5886 5888 5889 5889 5889 5891 5893 5896 5899 5901 5900 5899 5901 5901 5900 5902 5902 5902 5902 5903 5902 5901 5901 5900 5898 5897 5896 5893 5892
5885 5885 5885 5884 5882 5878 5881 5884 5883 5884 5883 5883 5880 5880 5880 5881 5882 5882 5882 5883 5884 5886 5888 5888 5889 5891 5894 5895 5898 5899 5900 5899 5900 5900 5900 5902 5902 5902 5903 5903 5902 5902 5901 5900 5898 5898 5896 5893 5891
5885 5885 5885 5883 5880 5876 5880 5882 5883 5883 5883 5881 5879 5879 5879 5881 5882 5882 5883 5883 5884 5886 5888 5889 5890 5891 5893 5895 5897 5898 5899 5899 5898 5899 5901 5901 5901 5902 5903 5903 5903 5902 5901 5899 5898 5897 5895 5893 5892
5885 5884 5884 5882 5881 5882 5883 5883 5883 5883 5881 5879 5879 5878 5877 5881 5882 5882 5882 5884 5885 5886 5888 5889 5890 5891 5892 5895 5896 5897 5898 5898 5899 5898 5900 5901 5901 5902 5903 5903 5902 5901 5901 5900 5899 5897 5895 5893 5893
5885 5884 5884 5883 5882 5881 5881 5882 5883 5882 5881 5880 5879 5878 5877 5881 5882 5882 5882 5883 5885 5886 5887 5889 5890 5892 5893 5896 5897 5898 5897 5898 5898 5898 5899 5901 5902 5903 5903 5903 5901 5902 5902 5901 5899 5898 5895 5894 5894
5884 5883 5882 5882 5883 5881 5880 5881 5881 5880 5880 5880 5878 5878 5878 5880 5882 5883 5883 5884 5885 5886 5888 5889 5890 5892 5895 5896 5897 5897 5897 5898 5897 5897 5897 5901 5902 5904 5902 5902 5902 5903 5901 5901 5900 5898 5897 5895 5895
5883 5882 5881 5881 5881 5880 5879 5879 5879 5880 5881 5880 5879 5878 5878 5880 5882 5883 5883 5884 5884 5886 5888 5889 5890 5892 5894 5896 5897 5897 5899 5897 5898 5898 5899 5901 5903 5903 5902 5903 5903 5903 5901 5901 5900 5898 5899 5897 5895
5882 5881 5880 5880 5880 5879 5878 5879 5878 5879 5879 5879 5879 5878 5878 5879 5882 5882 5882 5883 5884 5886 5887 5888 5890 5892 5893 5895 5896 5898 5899 5899 5898 5898 5900 5903 5905 5904 5905 5905 5904 5903 5903 5902 5900 5901 5901 5899 5897
5882 5881 5880 5880 5879 5878 5876 5877 5877 5878 5877 5878 5879 5878 5877 5879 5882 5882 5883 5883 5885 5885 5886 5888 5889 5891 5893 5894 5895 5898 5899 5899 5899 5899 5901 5904 5905 5905 5907 5907 5906 5906 5905 5904 5903 5903 5900 5899 5898
5881 5880 5881 5879 5877 5876 5875 5876 5875 5876 5876 5878 5879 5878 5878 5879 5882 5882 5883 5884 5885 5886 5886 5887 5888 5891 5892 5893 5895 5897 5898 5898 5900 5900 5903 5906 5906 5907 5908 5908 5907 5907 5908 5906 5906 5905 5903 5900 5899
5880 5880 5880 5878 5877 5875 5874 5875 5875 5875 5875 5877 5879 5879 5879 5880 5882 5882 5883 5884 5885 5886 5886 5886 5888 5891 5892 5893 5895 5896 5897 5897 5900 5901 5904 5906 5908 5909 5909 5909 5908 5907 5908 5907 5906 5905 5904 5902 5900
5879 5879 5879 5877 5876 5877 5877 5875 5875 5874 5876 5877 5878 5879 5880 5881 5882 5882 5883 5883 5884 5885 5886 5886 5888 5889 5891 5893 5894 5895 5896 5896 5900 5902 5905 5907 5909 5910 5910 5909 5908 5908 5909 5908 5906 5905 5904 5903 5902
5878 5879 5879 5878 5876 5875 5875 5874 5875 5875 5876 5876 5878 5879 5879 5881 5881 5883 5883 5883 5883 5884 5886 5886 5887 5888 5890 5893 5893 5894 5895 5898 5900 5903 5906 5907 5909 5911 5911 5910 5910 5910 5910 5909 5908 5905 5904 5903 5903
5875 5877 5878 5878 5877 5875 5876 5875 5874 5875 5875 5876 5877 5879 5880 5881 5881 5882 5882 5882 5883 5883 5885 5886 5887 5888 5891 5893 5895 5897 5899 5900 5902 5905 5907 5907 5908 5910 5911 5911 5912 5911 5911 5911 5909 5907 5906 5903 5903
5873 5874 5876 5876 5875 5874 5875 5874 5873 5875 5876 5876 5877 5879 5880 5881 5881 5881 5881 5881 5883 5882 5883 5885 5887 5889 5891 5894 5896 5899 5901 5902 5903 5906 5908 5908 5909 5909 5910 5911 5912 5911 5912 5912 5910 5909 5908 5907 5905
5871 5871 5873 5874 5875 5873 5875 5874 5874 5875 5877 5876 5877 5878 5879 5880 5882 5881 5881 5881 5881 5882 5883 5885 5887 5889 5892 5894 5896 5899 5902 5904 5905 5906 5908 5908 5910 5910 5911 5909 5912 5913 5913 5913 5912 5911 5910 5909 5908
5870 5872 5873 5873 5876 5875 5873 5873 5875 5877 5877 5877 5876 5877 5878 5878 5880 5882 5880 5881 5880 5881 5882 5884 5886 5889 5892 5894 5896 5899 5902 5904 5906 5907 5907 5908 5909 5910 5911 5911 5912 5913 5913 5913 5913 5913 5912 5910 5909
5868 5871 5870 5871 5873 5875 5874 5873 5874 5875 5876 5877 5877 5877 5877 5878 5878 5880 5880 5879 5879 5880 5881 5883 5886 5888 5891 5893 5896 5899 5901 5903 5906 5908 5908 5908 5909 5910 5910 5911 5911 5913 5914 5914 5914 5913 5913 5912 5910
5867 5869 5869 5871 5871 5873 5873 5874 5873 5873 5873 5874 5875 5876 5877 5876 5877 5879 5879 5879 5878 5878 5879 5882 5884 5887 5890 5893 5895 5898 5900 5902 5905 5907 5908 5909 5908 5909 5909 5910 5910 5912 5913 5913 5913 5913 5912 5912 5912
5867 5867 5868 5870 5870 5872 5874 5874 5874 5874 5872 5873 5873 5874 5875 5875 5875 5877 5879 5879 5877 5877 5878 5880 5881 5884 5887 5891 5894 5896 5899 5900 5904 5906 5908 5910 5909 5908 5910 5911 5912 5912 5912 5913 5913 5912 5912 5912 5912
5866 5866 5866 5867 5869 5870 5872 5873 5873 5874 5873 5873 5872 5872 5873 5873 5874 5875 5877 5878 5877 5877 5878 5881 5881 5882 5886 5889 5891 5894 5897 5900 5901 5903 5907 5908 5908 5909 5910 5911 5911 5910 5911 5911 5911 5912 5911 5912 5912
5866 5865 5865 5866 5868 5870 5871 5872 5870 5872 5872 5872 5872 5872 5872 5873 5873 5874 5875 5877 5877 5876 5877 5879 5881 5882 5885 5888 5890 5892 5894 5898 5900 5902 5905 5906 5907 5909 5909 5909 5909 5909 5910 5910 5910 5910 5912 5911 5911
5865 5865 5865 5866 5868 5870 5870 5872 5872 5872 5871 5870 5872 5871 5871 5872 5873 5874 5874 5875 5876 5876 5877 5877 5880 5881 5884 5886 5888 5890 5893 5896 5899 5901 5903 5905 5906 5907 5907 5908 5908 5908 5909 5909 5910 5910 5910 5910 5911
5865 5865 5867 5869 5868 5868 5869 5871 5871 5871 5869 5869 5870 5871 5871 5870 5872 5873 5873 5873 5875 5876 5877 5877 5878 5880 5883 5885 5887 5887 5890 5893 5897 5899 5901 5902 5904 5904 5905 5906 5907 5907 5908 5909 5909 5910 5910 5910 5910
5863 5863 5865 5866 5867 5869 5869 5871 5869 5871 5870 5870 5870 5870 5870 5870 5872 5873 5873 5873 5874 5877 5877 5877 5879 5880 5882 5885 5887 5887 5887 5889 5893 5896 5898 5900 5901 5901 5902 5904 5905 5905 5906 5908 5908 5909 5910 5909 5910
5861 5861 5864 5864 5865 5867 5869 5870 5869 5871 5871 5871 5871 5871 5870 5869 5870 5872 5873 5873 5874 5876 5876 5877 5879 5880 5880 5881 5883 5885 5887 5888 5890 5893 5895 5896 5897 5898 5899 5901 5902 5902 5904 5906 5907 5908 5909 5908 5909
5858 5861 5862 5862 5864 5866 5868 5870 5869 5870 5872 5874 5874 5872 5872 5872 5871 5871 5872 5873 5873 5874 5875 5876 5878 5879 5879 5880 5882 5883 5884 5886 5887 5889 5891 5893 5893 5895 5896 5897 5898 5899 5900 5902 5905 5905 5906 5907 5907
5858 5859 5860 5861 5863 5864 5866 5869 5870 5871 5872 5874 5875 5874 5874 5874 5872 5870 5871 5871 5871 5871 5873 5874 5875 5877 5877 5878 5879 5880 5881 5883 5884 5885 5886 5888 5889 5892 5893 5895 5896 5897 5897 5898 5901 5902 5902 5904 5904
5857 5858 5859 5859 5861 5862 5863 5867 5869 5870 5872 5874 5875 5874 5875 5874 5874 5872 5870 5870 5869 5869 5870 5871 5872 5873 5874 5875 5875 5876 5877 5878 5879 5880 5881 5883 5885 5887 5889 5890 5892 5894 5895 5895 5897 5898 5898 5900 5901